Location: Brookfield Center
(41.2406°N, 80.5579°W)
Time: 09:48:24
(UTC+00:00)

Lacrosse 5 rocket - Pass Details

Date: 18 January 2020
Orbit: 465 x 632 km, 57.0° (Epoch: 19 February)

Event Time Altitude Azimuth Distance (km) Brightness Sun altitude
Exits shadow 09:57:50 13° 25° (NNE) 1,782 4.1 -31.0°
Drops below altitude 10° 09:58:29 10° 30° (NNE) 2,001 4.5 -30.8°
Sets 10:00:59 0° 40° (NE) 2,895 5.5 -30.4°
